Regional Weather Roundup
Issued by NWS Lake Charles, LA

Home | Current Version | Previous Version | Text Only | Print | Product List | Glossary On
Versions: 1 2 3 4 5 6 7 8 9 10 11 12 13 14 15 16 17 18 19 20 21 22 23 24 25 26 27
000
ASUS44 KLCH 161910
RWRLCH
REGIONAL WEATHER ROUNDUP
NATIONAL WEATHER SERVICE LAKE CHARLES LA
200 PM CDT WED AUG 16 2017

Note: "fair" indicates few or no clouds below 12,000 feet with no
significant weather and/or obstructions to visibility.


ACROSS SOUTHEAST TEXAS

CITY           SKY/WX    TMP DP  RH WIND       PRES   REMARKS
BEAUMONT       PTSUNNY   91  77  63 S16       30.00S HX 104
BEAUMONT CITY  FAIR      94  75  53 MISG      30.00S HX 105
ORANGE         CLOUDY    90  78  68 S12G17    30.02S HX 104
JASPER         CLOUDY    94  74  51 SW8       30.01F HX 104
$$

ACROSS CENTRAL LOUISIANA

CITY           SKY/WX    TMP DP  RH WIND       PRES   REMARKS
LEESVILLE      CLOUDY    83  75  75 SE8       30.01S
FULLERTON      FAIR      78  76  93 CALM      30.01S
ALEXANDRIA INT LGT RAIN  76  74  93 SW3       30.04R
ESLER FIELD    CLOUDY    79  74  84 SW6       30.04S
DERIDDER       FAIR      86  79  80 SE6       30.04S
OAKDALE        CLOUDY    76  74  93 CALM      30.03F
OPELOUSAS      CLOUDY    77  75  92 CALM      30.05S
$$

ACROSS SOUTHWEST AND SOUTH CENTRAL LOUISIANA

CITY           SKY/WX    TMP DP  RH WIND       PRES   REMARKS
SULPHUR        CLOUDY    87  77  72 S9        30.02F
LAKE CHARLES   CLOUDY    86  78  77 S6        30.01F
CHENNAULT INT  NOT AVBL
CAMERON PHI    CLEAR     90  77  66 SW14      30.01F HX 102
DEQUINCY       FAIR      85  77  75 SE6       30.01F
JENNINGS       FAIR      86  79  79 S8        30.02F
LAFAYETTE      CLOUDY    87  79  76 SW9       30.04F HX 101
NEW IBERIA     PTSUNNY   88  74  63 SW8       30.05R
ABBEVILLE      NOT AVBL
PATTERSON      MOSUNNY   90  79  70 SW14      30.05S HX 106
SALT POINT       N/A     90  78  68 VRB5      30.03S HX 104
$$

SELECTED SITES ACROSS THE REGION

CITY           SKY/WX    TMP DP  RH WIND       PRES   REMARKS
HOUSTON BUSH   PTSUNNY   95  76  53 SW8       29.96F HX 108
HOUSTON HOBBY  MOSUNNY   96  76  52 S10       29.96F HX 109
GALVESTON      MOSUNNY   92  79  65 S20G25    30.00F HX 108
COLLEGE STAT   MOSUNNY   96  71  44 SW13      29.94F HX 103
CONROE         MOSUNNY   95  73  48 S15       29.96F HX 104
HUNTSVILLE     MOSUNNY   94  70  45 S9        29.97F HX 100
LUFKIN         MOSUNNY   92  73  53 S10       29.97F HX 100
SHREVEPORT     MOSUNNY   93  74  53 SW12      29.95F HX 103
MONROE         PTSUNNY   92  76  59 SW14G21   29.99F HX 104
NATCHEZ MS     CLOUDY    79  76  90 S5        30.05R
BATON ROUGE    CLOUDY    76  72  87 VRB3      30.04S
N.O. INTL ARPT PTSUNNY   91  76  61 SW5       30.03F HX 103
SLIDELL        CLOUDY    85  75  72 S6        30.04F
$$

MARINE REPORTS

STATION/POSITION TIME  SKY/WX   TEMP    WIND        PRES    VSBY
                                AIR SEA DIR/SP/G
                 (UTC)          (F)     (DEG/KT/KT) (MB)    (MI)
BUOY 30 S HIGH I 1850            87 87  200/ 14/ 17 1016.0F
WVE H/P(F/S)=  4/ 7

SEA RIM ST PARK  1800            88     200/ 12/ 14 1016.9S
PORT ARTHUR      1842            88 87  190/ 11/ 16 1016.5S
SABINE PASS N    1842            88 89  190/ 12/ 17 1017.8F
TEXAS POINT      NOT AVBL
CALCASIEU PASS   1842               89  220/ 14/ 15 1015.8F
LK CHARLES BEACH 1842            86 85              1016.9F
MARSH ISLAND     1800            88                   N/A
FRESH WATER LOCK 1842            87 87  190/ 12/ 15 1017.3S
AMERADA PASS     1842            88 86  180/  3/  7 1017.5F
$$




USA.gov is the U.S. government's official web portal to all federal, state and local government web resources and services.